N7BBI Weather Reports


time (UTC)temp
F
wind
direction
speed
knots
gust
knots
rain 1hr
in
rain 24hr
in
rain mn
in
humidity
%
barometer
mb
20260906070100 71 39 2.6 7.8 0.00 0.00 0.00 88 1015.4
20260906064559 71 41 4.3 8.7 0.00 0.00 0.00 89 1015.5
20260906063054 72 58 4.3 11.3 0.00 0.00 0.00 89 1015.2
20260906061552 72 74 3.5 10.4 0.00 0.00 0.00 88 1015.2
20260906060122 72 51 4.3 10.4 0.00 0.00 0.00 87 1015.3
20260906054548 73 46 3.5 10.4 0.00 0.00 0.00 87 1015.4
20260906053045 73 57 4.3 9.6 0.00 0.00 0.00 87 1015.3
20260906051543 73 55 6.1 12.2 0.00 0.00 0.00 87 1015.1
20260906050040 73 53 5.2 8.7 0.00 0.00 0.00 88 1015.1
20260906044537 74 39 3.5 9.6 0.00 0.00 0.00 88 1015.2
20260906043039 74 23 3.5 8.7 0.00 0.00 0.00 88 1014.9
20260906041535 74 29 2.6 11.3 0.00 0.00 0.00 89 1014.5
20260906040035 74 50 1.7 5.2 0.00 0.00 0.00 88 1014.3
20260906034532 74 52 2.6 5.2 0.00 0.00 0.00 88 1014.0
20260906033026 74 27 1.7 3.5 0.00 0.00 0.00 88 1014.0
20260906031542 74 86 0.0 0.9 0.00 0.00 0.00 87 1014.1
20260906030022 74 86 0.0 3.5 0.00 0.00 0.00 87 1013.7
20260906024523 74 86 1.7 3.5 0.00 0.00 0.00 87 1013.7
20260906023019 74 62 0.9 4.3 0.00 0.00 0.00 88 1013.4
20260906021521 74 56 0.9 2.6 0.00 0.00 0.00 87 1013.4
20260906020016 74 56 1.7 5.2 0.00 0.00 0.00 86 1013.1
20260906014523 74 51 1.7 5.2 0.00 0.00 0.00 86 1013.1
20260906013013 75 74 2.6 6.1 0.00 0.00 0.00 85 1012.8
20260906011512 76 70 2.6 7.0 0.00 0.00 0.00 84 1012.7
20260906010013 77 22 3.5 7.8 0.00 0.00 0.00 82 1012.9
20260906004511 78 36 6.1 11.3 0.00 0.00 0.00 81 1012.8
20260906003009 79 40 5.2 12.2 0.00 0.00 0.00 79 1012.8
20260906001509 81 50 5.2 10.4 0.00 0.00 0.00 77 1012.9
20260906000008 82 5 4.3 10.4 0.00 0.00 0.00 75 1012.6
20260905234507 83 26 3.5 13.0 0.00 0.00 0.00 73 1012.5
20260905233005 85 35 5.2 13.0 0.00 0.00 0.00 73 1012.4
20260905231505 86 10 2.6 12.2 0.00 0.00 0.00 72 1012.3
20260905230004 87 21 7.8 13.0 0.00 0.00 0.00 72 1012.3
20260905224504 87 23 3.5 12.2 0.00 0.00 0.00 71 1012.5
20260905223003 88 355 1.7 13.9 0.00 0.00 0.00 70 1012.3
20260905221502 88 50 7.0 13.0 0.00 0.00 0.00 69 1012.0
20260905220001 89 18 6.1 13.0 0.00 0.00 0.00 68 1012.0
20260905214607 90 38 3.5 9.6 0.00 0.00 0.00 67 1012.1
20260905213058 91 24 3.5 11.3 0.00 0.00 0.00 67 1012.0
20260905211559 91 360 5.2 12.2 0.00 0.00 0.00 67 1011.7
20260905210107 92 360 2.6 9.6 0.00 0.00 0.00 67 1011.7
20260905204558 93 33 5.2 11.3 0.00 0.00 0.00 65 1011.7
20260905203059 94 18 4.3 9.6 0.00 0.00 0.00 64 1011.8
20260905201553 94 51 2.6 8.7 0.00 0.00 0.00 63 1011.9
20260905200100 93 351 1.7 5.2 0.00 0.00 0.00 66 1011.8
20260905194548 92 58 3.5 7.8 0.00 0.00 0.00 66 1011.9
20260905193045 93 43 2.6 6.1 0.00 0.00 0.00 64 1012.0
20260905191544 93 330 1.7 5.2 0.00 0.00 0.00 66 1012.1
20260905190046 92 320 0.9 7.8 0.00 0.00 0.00 67 1012.4
20260905184539 92 341 3.5 8.7 0.00 0.00 0.00 65 1012.4
20260905183036 92 10 1.7 5.2 0.00 0.00 0.00 66 1012.3
20260905181535 92 49 2.6 7.8 0.00 0.00 0.00 66 1012.4
20260905180046 91 52 3.5 8.7 0.00 0.00 0.00 65 1012.4
20260905174526 91 70 3.5 7.8 0.00 0.00 0.00 67 1012.6
20260905173025 90 28 2.6 6.1 0.00 0.00 0.00 68 1012.5
20260905171530 90 41 5.2 9.6 0.00 0.00 0.00 69 1012.6
20260905170023 91 68 3.5 10.4 0.00 0.00 0.00 66 1012.8
20260905164520 91 37 1.7 9.6 0.00 0.00 0.00 68 1012.9
20260905163016 88 58 4.3 8.7 0.00 0.00 0.00 73 1012.9
20260905161523 88 65 3.5 7.8 0.00 0.00 0.00 70 1012.9
20260905160014 89 62 2.6 8.7 0.00 0.00 0.00 70 1012.8
20260905154511 89 68 0.9 7.0 0.00 0.00 0.00 72 1012.8
20260905153008 88 10 2.6 8.7 0.00 0.00 0.00 73 1012.8
20260905151507 87 62 3.5 9.6 0.00 0.00 0.00 71 1012.7
20260905150005 87 21 0.9 6.1 0.00 0.00 0.00 73 1012.5
20260905144502 86 62 5.2 9.6 0.00 0.00 0.00 73 1012.4
20260905143101 86 44 6.1 9.6 0.00 0.00 0.00 74 1012.2
20260905141555 85 36 3.5 7.0 0.00 0.00 0.00 79 1012.1
20260905140058 84 43 2.6 7.8 0.00 0.00 0.00 83 1012.0
20260905134557 82 38 2.6 7.0 0.00 0.00 0.00 84 1012.1
20260905133047 81 14 0.9 4.3 0.00 0.00 0.00 87 1012.0
20260905131539 80 61 1.7 4.3 0.00 0.00 0.00 87 1011.9
20260905130037 79 49 0.0 2.6 0.00 0.00 0.00 90 1011.8
20260905124534 78 5 0.9 4.3 0.00 0.00 0.00 92 1011.8
20260905123032 76 233 0.0 0.0 0.00 0.00 0.00 94 1011.7
20260905121530 75 233 0.0 1.7 0.00 0.00 0.00 94 1011.6
20260905120040 75 233 0.0 0.9 0.00 0.00 0.00 93 1011.2
20260905114527 75 233 0.0 1.7 0.00 0.00 0.00 92 1010.9
20260905113028 75 233 0.0 0.0 0.00 0.00 0.00 92 1010.7
20260905111542 75 233 0.0 0.9 0.00 0.00 0.00 92 1010.6
20260905110024 76 233 0.0 1.7 0.00 0.00 0.00 91 1010.6
20260905104522 76 233 0.0 0.9 0.00 0.00 0.00 91 1010.5
20260905103025 76 233 0.0 1.7 0.00 0.00 0.00 90 1010.7
20260905101516 77 233 0.0 1.7 0.00 0.00 0.00 90 1010.6
20260905100016 77 233 0.0 1.7 0.00 0.00 0.00 89 1010.7
20260905094515 78 233 0.0 0.9 0.00 0.00 0.00 88 1010.7
20260905093123 78 233 0.0 0.9 0.00 0.00 0.00 87 1010.8
20260905091510 79 233 0.0 4.3 0.00 0.00 0.00 87 1010.7
20260905090009 79 230 2.6 4.3 0.00 0.00 0.00 88 1010.6
20260905084507 78 199 1.7 2.6 0.00 0.00 0.00 89 1010.8
20260905083008 78 199 0.9 2.6 0.00 0.00 0.00 89 1010.9
20260905081506 79 199 0.0 1.7 0.00 0.00 0.00 88 1011.0
20260905080005 79 199 0.0 0.9 0.00 0.00 0.00 87 1011.1
20260905074504 80 199 0.0 2.6 0.00 0.00 0.00 86 1011.0
20260905073003 80 199 0.0 3.5 0.00 0.00 0.00 87 1010.9
20260905071502 80 199 0.9 2.6 0.00 0.00 0.00 87 1011.0